Regional Weather Roundup
Issued by NWS

Home | Current Version | Previous Version | Graphics & Text | Print | Product List | Glossary On
Versions: 1 2 3 4 5 6 7 8 9 10 11 12 13 14 15 16 17 18 19 20 21 22 23 24 25 26 27 28 29 30 31 32 33 34 35 36 37 38 39 40 41 42 43 44 45 46 47 48 49 50
000
ASUS43 KLOT 300208
RWRIL

ILLINOIS REGIONAL WEATHER ROUNDUP
NATIONAL WEATHER SERVICE CHICAGO/ROMEOVILLE IL
900 PM CDT SUN MAR 29 2015

NOTE: "FAIR" INDICATES FEW OR NO CLOUDS BELOW 12,000 FEET WITH NO
SIGNIFICANT WEATHER AND/OR OBSTRUCTIONS TO VISIBILITY.

* THESE STATIONS ARE NOT UNDER NWS QUALITY CONTROL. THEY ALSO MAY NOT
  REPORT WEATHER SUCH AS PRECIPITATION OR FOG.

ILZ001-002-007-009-015-016-024-300300-
NORTHWEST ILLINOIS

CITY           SKY/WX    TMP DP  RH WIND       PRES   REMARKS
MOLINE         CLEAR     50  31  48 NW13      29.94R
STERLING*      CLEAR     41  34  75 N7        29.93R
SAVANNA*       CLEAR     46  35  64 CALM      29.93R
$$

ILZ003-004-008-010-011-017-018-300300-
NORTH CENTRAL ILLINOIS

CITY           SKY/WX    TMP DP  RH WIND       PRES   REMARKS
ROCKFORD       PTCLDY    42  32  67 W10       29.90R
FREEPORT*      CLEAR     41  33  74 W12       29.91R
ROCHELLE*      CLEAR     40  33  76 W9        29.91R
DE KALB*       CLEAR     39  32  77 NW9       29.89R WCI  32
PERU*          CLEAR     43  38  82 NW8       29.92R
$$

ILZ005-006-012>014-019>023-300300-
NORTHEAST ILLINOIS

CITY           SKY/WX    TMP DP  RH WIND       PRES   REMARKS
CHICAGO-OHARE  PTCLDY    45  34  65 NW14      29.86R
CHICAGO-MIDWAY MOCLDY    48  36  63 W13G24    29.87R
AURORA         CLEAR     42  33  70 W13       29.89R
LANSING*       CLOUDY    47  34  59 NW17G30   29.88R
JOLIET*        PTCLDY    47  35  63 W12G17    29.90R
WAUKEGAN       MOCLDY    43  35  73 W13G22    29.83R
DUPAGE AIRPORT CLEAR     43  33  68 W13       29.87R
KANKAKEE*      CLOUDY    48  40  74 W21G37    29.90R
WHEELING       MOCLDY    45  34  65 W12       29.87R
MORRIS*        PTCLDY    44  35  70 NW12      29.91R
ROMEOVILLE*    CLEAR     44  34  68 NW17      29.89R
NORTHERLY ISL    N/A     47  35  63 NW12        N/A
$$

LMZ740>746-300300-
SOUTHERN LAKE MICHIGAN

STATION/POSITION SKY/WX   TEMP    WIND        PRES    VSBY  WAVE
                          AIR SEA DIR/SP/G                  HT/PER
                          (F)     (DEG/KT/KT) (MB)    (MI)  (FT/S)
HARRISON CRIB              47     290/ 28/ 34   N/A
BURNHAM HARBOR             47     270/  7/ 23   N/A
CALUMET HARBOR             50     250/ 11/ 23 1008.6R
BURNS HARBOR               48     220/ 20     1009.8R
MICHIGAN CITY              46     190/ 20/ 23   N/A
$$

ILZ025>027-034>036-040-047-049-050-058-095>099-300300-
WEST-CENTRAL ILLINOIS

CITY           SKY/WX    TMP DP  RH WIND       PRES   REMARKS
QUINCY         CLEAR     48  38  68 NW8       30.01R
GALESBURG*     CLEAR     43  36  76 W12       29.96R
MACOMB*        CLEAR     44  37  75 W12       30.00R
JACKSONVILLE*  MOCLDY    52  41  66 SW8       30.00R
PITTSFIELD*    CLEAR     52  41  66 NW6       30.03R
$$

ILZ028>032-037-038-041>044-048-051>054-059>061-300300-
CENTRAL ILLINOIS

CITY           SKY/WX    TMP DP  RH WIND       PRES   REMARKS
PONTIAC        MOCLDY    50  43  77 NW13      29.93R
BLOOMINGTON    PTCLDY    51  42  71 W16       29.94R
DECATUR        CLOUDY    51  41  68 SW12      29.96R
PEORIA         CLEAR     52  38  58 NW6       29.96R
LACON*         CLEAR     47  37  68 NW6       29.93R
LINCOLN*       MOCLDY    54  40  60 W8        29.95R
SPRINGFIELD    PTCLDY    50  40  68 W10       29.98R
TAYLORVILLE    MOCLDY    50  41  71 SW10      29.98R
$$

ILZ033-039-045-046-055>057-062-063-300300-
EAST-CENTRAL ILLINOIS

CITY           SKY/WX    TMP DP  RH WIND       PRES   REMARKS
CHAMPAIGN      CLOUDY    46  40  79 SW13      29.93R
DANVILLE*      CLOUDY    46  40  80 SW16      29.89S
RANTOUL*       CLOUDY    48  42  80 SW16      29.91R
MATTOON        CLOUDY    48  41  76 SW10      29.96R
PARIS*         CLOUDY    45  41  87 SW12      29.97R
$$

ILZ079-100>102-300300-
SOUTHWEST ILLINOIS

CITY           SKY/WX    TMP DP  RH WIND       PRES   REMARKS
BELLEVILLE     MOCLDY    46  44  93 SW2       30.01R
CAHOKIA*       MOCLDY    49  42  77 SW5       30.02R
SPARTA*        CLOUDY    50  42  71 SW6       30.04R
$$

ILZ064>066-069>071-074>076-080>082-084>086-088>090-092>094-300300-
SOUTH-CENTRAL ILLINOIS

CITY           SKY/WX    TMP DP  RH WIND       PRES   REMARKS
CARBONDALE     CLOUDY    53  42  66 W8        30.05R
CAIRO*         CLOUDY    55  48  75 W10       30.09R
EFFINGHAM*     MOCLDY    48  39  71 S7        30.01R
MARION         CLOUDY    55  45  67 SW9       30.05R
MT. VERNON     MOCLDY    46  39  76 SW9       30.04R
CENTRALIA*     CLOUDY    48  40  74 SW6       30.02R
SALEM*         MOCLDY    50  42  76 SW7       30.01R
METROPOLIS*    MOCLDY    57  46  67 W7        30.05R
$$

ILZ067-068-072-073-078-083-087-091-300300-
SOUTHEAST ILLINOIS

CITY           SKY/WX    TMP DP  RH WIND       PRES   REMARKS
LAWRENCEVILLE  CLOUDY    51  43  74 SW15G23   30.01R
FLORA*         CLOUDY    49  41  75 SW7       30.01R
FAIRFIELD*     CLOUDY    50  44  78 SW6       30.01R
HARRISBURG*    CLOUDY    55  45  69 SW8       30.06R
ROBINSON*      CLOUDY    47  41  79 SW10      30.01R
CARMI*         CLOUDY    53  40  61 SW6       30.02S
$$

ABBREVIATIONS USED IN REMARKS
   TC - TEMPERATURE IN CELSIUS
  WCI - WIND CHILL INDEX
   HX - HEAT INDEX
  VSB - VISIBILITY
$$



USA.gov is the U.S. government's official web portal to all federal, state and local government web resources and services.